User: anonymous   Login
Location: Unspecified
(0.0000°N, 0.0000°E)
Time: 05:54:03
(UTC+00:00)
Language:

BIRD GG - Orbit

View from above orbital plane
View from above orbital plane
View from above satellite
View from above satellite

Ground track
Ground track

The orbit data is extracted from the following two-line orbital elements,

1 42821U 98067MV  18350.70919491  .00034307  00000-0  20631-3 0  9996
2 42821  51.6263 147.5244 0002371 173.5756 186.5275 15.77386524 82536
Epoch (UTC): 16 December 2018 17:01:14
Eccentricity: 0.0002371
inclination: 51.6263°
perigee height: 336 km
apogee height: 339 km
right ascension of ascending node: 147.5244°
argument of perigee: 173.5756°
revolutions per day: 15.77386524
mean anomaly at epoch: 186.5275°
orbit number at epoch: 8253

The dashed part of the orbit path shows where the satellite is in the earth's shadow,  

DLR